FW5912 Weather Reports


time (UTC)temp
F
wind
direction
speed
knots
gust
knots
rain 1hr
in
rain 24hr
in
rain mn
in
humidity
%
barometer
mb
20260502181605 69 340 12.2 19.1 0.00 0.61 0.00 55 1020.7
20260502163057 66 44 11.3 17.4 0.00 0.67 0.00 69 1021.1
20260502161557 65 20 12.2 18.2 0.00 0.67 0.00 70 1020.9
20260502151612 63 20 13.0 20.9 0.00 0.77 0.00 76 1020.6
20260502150107 63 32 12.2 19.1 0.00 0.77 0.00 78 1020.5
20260502123105 58 51 11.3 18.2 0.00 0.88 0.00 83 1019.1
20260502121552 57 17 9.6 19.1 0.00 0.88 0.00 84 1018.8
20260502114552 57 33 8.7 18.2 0.00 0.88 0.00 84 1018.5
20260502113052 57 26 7.8 20.9 0.00 0.88 0.00 82 1018.0
20260502111554 56 30 12.2 17.4 0.00 0.88 0.00 82 1017.6
20260502110059 56 51 7.8 14.8 0.00 0.88 0.00 85 1017.4
20260502104557 56 360 7.8 14.8 0.00 0.88 0.00 86 1017.3
20260502103058 56 40 7.8 14.8 0.00 0.88 0.00 86 1017.3
20260502101616 56 54 7.0 13.9 0.00 0.88 0.00 87 1017.1
20260502100116 57 21 10.4 17.4 0.00 0.88 0.00 87 1016.7
20260502080107 58 49 12.2 20.9 0.00 0.88 0.00 88 1016.2
20260502064601 58 28 13.0 24.3 0.00 0.88 0.00 90 1015.9
20260502063105 57 55 14.8 23.5 0.00 0.88 0.00 92 1016.0
20260502061559 57 342 12.2 26.9 0.00 0.88 0.00 93 1015.9
20260502060057 57 34 17.4 23.5 0.00 0.88 0.00 93 1015.6
20260502054555 57 25 15.6 23.5 0.00 0.88 0.00 93 1015.5
20260502053112 57 346 13.0 23.5 0.00 0.88 0.00 94 1015.7
20260502051554 57 63 14.8 23.5 0.00 0.88 0.00 94 1015.3
20260502050054 58 325 12.2 24.3 0.00 0.88 0.00 95 1015.7
20260502044555 57 34 12.2 21.7 0.00 0.88 0.88 94 1015.5
20260502043106 58 40 11.3 20.9 0.00 0.88 0.88 94 1015.5
20260502041554 59 60 9.6 16.5 0.01 0.88 0.88 94 1015.2
20260502040054 60 317 12.2 18.2 0.03 0.88 0.88 94 1015.3
20260502034556 60 315 12.2 19.1 0.03 0.88 0.88 94 1015.0
20260502033103 60 17 10.4 19.1 0.06 0.88 0.88 95 1014.8
20260502031555 60 9 8.7 17.4 0.07 0.87 0.87 94 1014.6
20260502030100 60 17 8.7 18.2 0.07 0.85 0.85 94 1014.5
20260502024555 61 14 7.8 17.4 0.13 0.85 0.85 95 1014.2
20260502023110 61 327 10.4 16.5 0.13 0.82 0.82 94 1014.7
20260502021556 61 325 8.7 16.5 0.15 0.80 0.80 95 1013.8
20260502020058 61 20 9.6 14.8 0.16 0.78 0.78 94 1013.7
20260502014600 61 31 9.6 18.2 0.10 0.72 0.72 94 1013.4
20260502013059 61 17 11.3 16.5 0.07 0.69 0.69 93 1012.8
20260502011559 62 328 10.4 18.2 0.03 0.65 0.65 93 1012.8
20260502010057 62 25 13.0 25.2 0.00 0.62 0.62 93 1012.4
20260502004609 62 14 15.6 26.9 0.00 0.62 0.62 93 1011.5
20260502003054 63 36 15.6 23.5 0.00 0.62 0.62 94 1010.6
20260502001559 62 41 13.9 23.5 0.00 0.62 0.62 93 1009.8
20260502000059 62 24 13.9 21.7 0.00 0.62 0.62 94 1010.8
20260501234601 62 344 13.9 21.7 0.01 0.62 0.62 94 1010.0
20260501233058 62 38 13.9 25.2 0.01 0.62 0.62 94 1009.3
20260501231604 63 46 15.6 22.6 0.01 0.62 0.62 94 1009.9
20260501230100 63 30 14.8 23.5 0.01 0.62 0.62 93 1009.6
20260501224608 64 18 14.8 23.5 0.04 0.61 0.61 94 1010.1
20260501223111 64 42 9.6 15.6 0.13 0.61 0.61 94 1010.8
20260501221625 65 42 11.3 20.0 0.14 0.61 0.61 94 1010.4
20260501220055 64 57 13.9 25.2 0.14 0.61 0.61 94 1009.3
20260501214557 64 53 13.9 25.2 0.13 0.57 0.57 93 1009.2
20260501213113 64 50 13.0 25.2 0.05 0.48 0.48 93 1011.3
20260501211555 64 27 16.5 22.6 0.11 0.47 0.47 93 1009.8
20260501210059 64 60 10.4 18.2 0.14 0.46 0.46 93 1010.3
20260501204559 65 51 11.3 17.4 0.12 0.44 0.44 93 1010.0
20260501203105 64 34 13.0 20.0 0.12 0.43 0.43 92 1009.1
20260501201554 65 345 9.6 19.1 0.05 0.36 0.36 91 1010.0
20260501200055 65 31 11.3 25.2 0.04 0.32 0.32 91 1009.3
20260501194555 65 41 12.2 21.7 0.05 0.32 0.32 91 1009.4
20260501193052 65 51 13.0 19.1 0.04 0.31 0.31 91 1009.7
20260501191558 65 58 8.7 15.6 0.04 0.31 0.31 91 1010.0
20260501190053 66 19 9.6 20.9 0.01 0.28 0.28 89 1010.5
20260501184608 66 32 13.0 22.6 0.00 0.27 0.27 89 1009.9
20260501183058 66 69 10.4 20.9 0.00 0.27 0.27 89 1009.8